COSMOS 1275 DEB, 42210

Orbit data source: Space-Track

COSMOS 1275 DEB, 42210 is space debris in LEO originally from a launch on Thu, 04 Jun 1981 UTC launched from the Plesetsk Missile And Space Complex (PKMTR). Debris objects in space refer to the collection of defunct objects orbiting the Earth. Examples of debris include non-operational satellites, rocket bodies, and fragments generated from explosions, collisions, or faulty payload assembly.

Loading next visibility...
Identifier
42210, 1981-053UA
Orbit
LEO
Country
Flag of CISCIS
Related business
Manufacturer
Unknown
Mission
Spacecraft
Bus & Motor
Unknown
Mass
Unknown
Launch date (UTC)
1981-06-04 (45 years ago)
Launch vehicle
Unknown
Launch site
Plesetsk Missile And Space Complex (PKMTR)
Object type
Payload
Rocket body
Debris
Shape & HBR
Unknown shape, 0.1 m
Radar Cross Section
Small (<0.1 m²)

Expand to show TLE details & history
Last TLE update: 2 days ago

TLE from 2 days ago
0 COSMOS 1275 DEB
1 42210U 81053UA  26235.28128653  .00000702  00000-0  72926-3 0  9997
2 42210  83.0060 221.8775 0106792 176.6083 247.2824 13.71766628636625
Epoch: 2026-08-23T06:45Z
TLE epoch observation values (Epoch: 2026-08-23T06:45:03.156Z)
Latitude
62.04044°
Longitude
162.32746°
Altitude
1,034.986 km
Speed
7.325 km/s
True Right ascension
15h 40m 40s
True Declination
61° 54' 11"
Sunlit
Object was in daylight at epoch
Visualization orbit readout
Latitude
Unknown
Longitude
Unknown
Altitude
Unknown
Speed
Unknown
Apparent Right ascension
Unknown
Apparent Declination
Unknown
Sunlit
N/A
Visualization observer readout
Local Sidereal Time
15:29:29
Azimuth
Unknown
Elevation
Unknown
Doppler factor
Unknown
Orbital elements
Apogee altitude
1,069.076 km
Perigee altitude
911.696 km
Semi-major axis
7,368.523 km
Eccentricity
0.01068
Inclination
83.006°
RAAN
221.8775°
Arg. of periapsis
176.6083°
True anomaly
246.15946°
Mean anomaly
247.2824°
Eccentric anomaly
246.72034°
Mean motion
3.43141 °/min
Orbital period
104.91 mins
BSTAR
0.00072926
Loading maneuver chart data...
Computing Atmospheric mass density...
Loading historical data...
Loading historical data...
Loading historical data...
Loading historical data...
Loading historical data...
Loading historical data...
Loading historical data...

Documentation

Showing up to 5 results
|